Chatham, MA

2:19 PM EDT on May 27, 2017 (GMT -0400)
Chatham Municipal

Weather History for KCQX - September, 2014

Change the Weather History Date:

Friday, September 5, 2014

  Actual Average Record
Temperature  
Mean Temperature 73 °F -  
Max Temperature 80 °F 71 °F 82 °F (2011)
Min Temperature 66 °F 58 °F 48 °F (1997)
Cooling Degree Days 8    
Growing Degree Days 23 (Base 50)    
Moisture  
Dew Point 70 °F    
Average Humidity 87    
Maximum Humidity 97    
Minimum Humidity 71    
Precipitation  
Precipitation 0.00 in - - ()
Sea Level Pressure  
Sea Level Pressure 30.14 in    
Wind  
Wind Speed 8 mph (SW)    
Max Wind Speed 14 mph    
Max Gust Speed 22 mph    
Visibility 10 miles    
Events      
Averages and records for this station are not official NWS values.
T = Trace of Precipitation, MM = Missing Value Source: NWS Daily Summary

Daily Weather History Graph

Daily Weather History Graph

Search for Another Location

Airport or City:

Trip Planner

Search our weather history database for the weather conditions in past years. The results will help you decide how hot, cold, wet, or windy it might be!

Date:

Astronomy

Sep. 05, 2014 Rise Set
Actual Time 6:09 AM EDT 7:06 PM EDT
Civil Twilight 5:41 AM EDT 7:34 PM EDT
Nautical Twilight 5:07 AM EDT 8:08 PM EDT
Astronomical Twilight 4:32 AM EDT 8:43 PM EDT
Moon 4:34 PM EDT (9/5) 1:58 AM EDT (9/5)
Length of Visible Light 13h 53m
Length of Day
12h 56m
Waxing Gibbous, 83% of the Moon is Illuminated
Sep 5
Waxing Gibbous
Sep 8
Full
Sep 15
Last Quarter
Sep 24
New
Oct 1
First Quarter

Hourly Weather History & Observations

Time (EDT) Temp. Heat Index Dew Point Humidity Pressure Visibility Wind Dir Wind Speed Gust Speed Precip Events Conditions
12:52 AM 71.1 °F - 68.0 °F 90% 30.17 in 10.0 mi WSW 6.9 mph - N/A   Clear
1:52 AM 69.1 °F - 66.9 °F 93% 30.16 in 10.0 mi WSW 4.6 mph - N/A   Clear
2:52 AM 68.0 °F - 66.0 °F 93% 30.17 in 10.0 mi WSW 3.5 mph - N/A   Clear
3:52 AM 66.0 °F - 64.0 °F 93% 30.18 in 8.0 mi Calm Calm - N/A   Clear
5:52 AM 69.1 °F - 68.0 °F 96% 30.18 in 10.0 mi SW 4.6 mph - N/A   Partly Cloudy
6:52 AM 70.0 °F - 68.0 °F 93% 30.19 in 10.0 mi SW 5.8 mph - N/A   Clear
7:12 AM 71.1 °F - 69.1 °F 93% 30.19 in 10.0 mi SW 6.9 mph - N/A   Scattered Clouds
7:22 AM 71.1 °F - 70.0 °F 96% 30.18 in 10.0 mi SSW 6.9 mph - N/A   Mostly Cloudy
8:31 AM 73.9 °F - 70.0 °F 87% 30.19 in 10.0 mi SW 8.1 mph - N/A   Scattered Clouds
8:52 AM 75.9 °F - 70.0 °F 82% 30.20 in 10.0 mi WSW 10.4 mph - N/A   Partly Cloudy
9:35 AM 75.9 °F - 70.0 °F 82% 30.20 in 10.0 mi SW 9.2 mph 16.1 mph N/A   Mostly Cloudy
9:52 AM 75.9 °F - 70.0 °F 82% 30.20 in 10.0 mi SW 8.1 mph 17.3 mph N/A   Mostly Cloudy
10:17 AM 78.1 °F - 71.1 °F 79% 30.20 in 10.0 mi SW 9.2 mph - N/A   Scattered Clouds
10:52 AM 79.0 °F - 71.1 °F 77% 30.20 in 10.0 mi Variable 5.8 mph - N/A   Scattered Clouds
11:35 AM 78.1 °F - 71.1 °F 79% 30.18 in 10.0 mi SW 8.1 mph 20.7 mph N/A   Mostly Cloudy
12:09 PM 79.0 °F - 71.1 °F 77% 30.17 in 10.0 mi SSW 11.5 mph 20.7 mph N/A   Scattered Clouds
12:52 PM 79.0 °F - 71.1 °F 77% 30.16 in 10.0 mi SW 10.4 mph 20.7 mph N/A   Clear
1:52 PM 80.1 °F 83.2 °F 70.0 °F 71% 30.15 in 10.0 mi SW 12.7 mph 20.7 mph N/A   Clear
2:20 PM 79.0 °F - 71.1 °F 77% 30.13 in 10.0 mi SW 10.4 mph 20.7 mph N/A   Partly Cloudy
2:52 PM 79.0 °F - 71.1 °F 77% 30.12 in 10.0 mi SW 13.8 mph 20.7 mph N/A   Partly Cloudy
3:52 PM 78.1 °F - 71.1 °F 79% 30.13 in 10.0 mi SW 11.5 mph 20.7 mph N/A   Clear
5:52 PM 75.0 °F - 70.0 °F 84% 30.12 in 10.0 mi SW 10.4 mph 21.9 mph N/A   Clear
6:52 PM 73.0 °F - 70.0 °F 90% 30.10 in 10.0 mi SW 12.7 mph 18.4 mph N/A   Clear
7:39 PM 73.0 °F - 70.0 °F 90% 30.10 in 10.0 mi SW 11.5 mph 16.1 mph N/A   Scattered Clouds
7:50 PM 73.4 °F - 71.6 °F 94% 30.10 in 10.0 mi SSW 8.1 mph 17.3 mph N/A   Mostly Cloudy
7:52 PM 73.0 °F - 71.1 °F 93% 30.10 in 10.0 mi SW 10.4 mph 17.3 mph N/A   Mostly Cloudy
8:32 PM 72.0 °F - 70.0 °F 93% 30.08 in 10.0 mi SW 10.4 mph 17.3 mph N/A   Scattered Clouds
8:52 PM 72.0 °F - 71.1 °F 97% 30.08 in 10.0 mi SSW 9.2 mph 17.3 mph N/A   Clear
9:03 PM 72.0 °F - 71.1 °F 97% 30.07 in 10.0 mi SSW 9.2 mph 20.7 mph N/A   Partly Cloudy
9:52 PM 72.0 °F - 70.0 °F 93% 30.07 in 10.0 mi SSW 12.7 mph 19.6 mph N/A   Scattered Clouds
10:52 PM 72.0 °F - 70.0 °F 93% 30.05 in 10.0 mi SSW 11.5 mph 19.6 mph N/A   Clear
11:52 PM 72.0 °F - 70.0 °F 93% 30.04 in 10.0 mi SW 9.2 mph 20.7 mph N/A   Clear